EWG3W EDDF-EDDH

Flight info

Callsign EWG3W
Flight time N/A
Altitude 35000
Route MARUN3W/25C MARUN Y150 TOLGI DCT SAS/N0436F340 P605 NOLGO NOLGO6A
Aircraft A319/M-SDE3FGHIRWY/LB1

Departure

Time 2026-05-05 18:30
Airport Frankfurt Main Airport (EDDF)

Arrival

Time N/A
Airport Hamburg Helmut Schmidt Airport (EDDH)
Time Latitude Longitude Altitude Speed Heading
2026-05-05 17:30 50.04959 8.59077 363 ft 0 kts 160°
2026-05-05 18:16 50.04970 8.59070 367 ft 3 kts 160°
2026-05-05 18:16 50.04989 8.59059 363 ft 3 kts 160°
2026-05-05 18:16 50.05009 8.59048 363 ft 3 kts 159°
2026-05-05 18:16 50.05026 8.59037 360 ft 3 kts 168°
2026-05-05 18:17 50.05046 8.59036 362 ft 3 kts 203°
2026-05-05 18:17 50.05062 8.59053 363 ft 3 kts 235°
2026-05-05 18:17 50.05069 8.59072 359 ft 1 kts 249°
2026-05-05 18:17 50.05071 8.59082 359 ft 0 kts 249°
2026-05-05 18:20 50.05071 8.59079 359 ft 2 kts 249°
2026-05-05 18:21 50.05057 8.59021 363 ft 4 kts 249°
2026-05-05 18:21 50.05043 8.58963 365 ft 7 kts 249°
2026-05-05 18:21 50.05021 8.58871 361 ft 11 kts 250°
2026-05-05 18:21 50.04992 8.58752 361 ft 9 kts 249°
2026-05-05 18:22 50.04957 8.58657 360 ft 11 kts 210°
2026-05-05 18:22 50.04901 8.58676 361 ft 5 kts 159°
2026-05-05 18:22 50.04874 8.58691 363 ft 3 kts 160°
2026-05-05 18:22 50.04871 8.58693 362 ft 0 kts 160°
2026-05-05 18:23 50.04869 8.58694 362 ft 1 kts 160°
2026-05-05 18:23 50.04863 8.58698 363 ft 0 kts 159°
2026-05-05 18:24 50.04862 8.58698 363 ft 0 kts 159°
2026-05-05 18:25 50.04843 8.58709 363 ft 6 kts 159°
2026-05-05 18:25 50.04802 8.58733 365 ft 12 kts 160°
2026-05-05 18:25 50.04691 8.58767 370 ft 11 kts 187°
2026-05-05 18:25 50.04647 8.58758 370 ft 4 kts 187°
2026-05-05 18:26 50.04644 8.58757 370 ft 0 kts 188°
2026-05-05 18:27 50.04635 8.58755 370 ft 6 kts 188°
2026-05-05 18:27 50.04568 8.58695 371 ft 15 kts 219°
2026-05-05 18:27 50.04481 8.58565 370 ft 15 kts 244°
2026-05-05 18:28 50.04468 8.58510 373 ft 0 kts 250°
2026-05-05 18:29 50.04467 8.58505 373 ft 3 kts 250°
2026-05-05 18:29 50.04420 8.58307 370 ft 49 kts 250°
2026-05-05 18:30 50.04220 8.57476 367 ft 112 kts 250°
2026-05-05 18:30 50.03884 8.56071 392 ft 159 kts 250°
2026-05-05 18:30 50.03512 8.54462 979 ft 159 kts 251°
2026-05-05 18:30 50.03137 8.52818 1562 ft 165 kts 250°
2026-05-05 18:31 50.02708 8.51034 1887 ft 186 kts 249°
2026-05-05 18:31 50.01925 8.49327 2323 ft 201 kts 223°
2026-05-05 18:31 50.00705 8.48227 3000 ft 206 kts 200°
2026-05-05 18:31 49.99306 8.47833 3728 ft 207 kts 190°
2026-05-05 18:32 49.97881 8.47514 4475 ft 207 kts 190°
2026-05-05 18:32 49.96453 8.47189 5190 ft 207 kts 191°
2026-05-05 18:32 49.95036 8.46605 5729 ft 217 kts 198°
2026-05-05 18:32 49.93522 8.45896 6158 ft 237 kts 198°
2026-05-05 18:33 49.92003 8.44830 6850 ft 243 kts 218°
2026-05-05 18:33 49.90946 8.42796 7655 ft 247 kts 245°
2026-05-05 18:33 49.90630 8.40172 8584 ft 252 kts 272°
2026-05-05 18:33 49.91169 8.37599 9498 ft 261 kts 301°
2026-05-05 18:34 49.92518 8.35677 10334 ft 271 kts 329°
2026-05-05 18:34 49.94287 8.34462 10912 ft 288 kts 334°
2026-05-05 18:34 49.96197 8.33227 11323 ft 308 kts 335°
2026-05-05 18:34 49.98259 8.31909 11581 ft 331 kts 335°
2026-05-05 18:35 50.00454 8.30504 11998 ft 346 kts 335°
2026-05-05 18:35 50.02781 8.29347 12671 ft 356 kts 346°
2026-05-05 18:35 50.04407 8.29006 13148 ft 361 kts 354°
2026-05-05 18:35 50.06939 8.29180 13847 ft 368 kts
2026-05-05 18:36 50.10242 8.30608 14702 ft 375 kts 17°
2026-05-05 18:36 50.11920 8.31480 15153 ft 377 kts 18°
2026-05-05 18:36 50.14389 8.32771 15800 ft 380 kts 18°
2026-05-05 18:36 50.16905 8.34092 16429 ft 385 kts 18°
2026-05-05 18:37 50.19451 8.35428 16684 ft 385 kts 18°
2026-05-05 18:37 50.21998 8.36769 16823 ft 386 kts 18°
2026-05-05 18:37 50.24548 8.38114 16926 ft 389 kts 19°
2026-05-05 18:37 50.27133 8.39478 17563 ft 391 kts 19°
2026-05-05 18:38 50.29722 8.40843 18196 ft 394 kts 19°
2026-05-05 18:38 50.32330 8.42236 18758 ft 397 kts 19°
2026-05-05 18:38 50.34950 8.43657 19349 ft 400 kts 20°
2026-05-05 18:38 50.37554 8.45086 19931 ft 403 kts 20°
2026-05-05 18:39 50.40208 8.46550 20505 ft 406 kts 20°
2026-05-05 18:39 50.42883 8.48022 21084 ft 408 kts 20°
2026-05-05 18:39 50.45585 8.49500 21654 ft 411 kts 20°
2026-05-05 18:39 50.48302 8.50971 22194 ft 414 kts 20°
2026-05-05 18:40 50.51056 8.52367 22715 ft 418 kts 19°
2026-05-05 18:40 50.53829 8.53817 23227 ft 420 kts 25°
2026-05-05 18:40 50.56354 8.56125 23658 ft 420 kts 36°
2026-05-05 18:40 50.58772 8.58659 24087 ft 423 kts 36°
2026-05-05 18:41 50.61228 8.61248 24501 ft 426 kts 36°
2026-05-05 18:41 50.63697 8.63863 24942 ft 428 kts 36°
2026-05-05 18:41 50.66176 8.66493 25352 ft 431 kts 36°
2026-05-05 18:41 50.68676 8.69145 25762 ft 434 kts 36°
2026-05-05 18:42 50.71189 8.71815 26177 ft 437 kts 36°
2026-05-05 18:42 50.73719 8.74502 26564 ft 439 kts 36°
2026-05-05 18:42 50.76238 8.77180 26986 ft 442 kts 36°
2026-05-05 18:42 50.78804 8.79910 27381 ft 445 kts 36°
2026-05-05 18:43 50.81384 8.82659 27735 ft 448 kts 36°
2026-05-05 18:43 50.83966 8.85421 27809 ft 448 kts 36°
2026-05-05 18:43 50.86557 8.88199 27817 ft 449 kts 36°
2026-05-05 18:43 50.89153 8.90980 28101 ft 452 kts 36°
2026-05-05 18:44 50.91762 8.93776 28462 ft 454 kts 36°
2026-05-05 18:44 50.94390 8.96597 28824 ft 457 kts 36°
2026-05-05 18:44 50.97031 8.99438 29187 ft 460 kts 36°
2026-05-05 18:44 50.99687 9.02298 29543 ft 462 kts 37°
2026-05-05 18:45 51.02330 9.05144 29887 ft 465 kts 37°
2026-05-05 18:45 51.05021 9.08051 30171 ft 468 kts 37°
2026-05-05 18:45 51.07727 9.10979 30451 ft 471 kts 37°
2026-05-05 18:45 51.10449 9.13927 30716 ft 474 kts 37°
2026-05-05 18:46 51.13187 9.16894 30977 ft 477 kts 37°
2026-05-05 18:46 51.15933 9.19876 31358 ft 477 kts 37°
2026-05-05 18:46 51.18680 9.22865 31751 ft 478 kts 37°
2026-05-05 18:46 51.21429 9.25859 32138 ft 478 kts 37°
2026-05-05 18:47 51.24183 9.28864 32534 ft 478 kts 37°
2026-05-05 18:47 51.26929 9.31752 32929 ft 480 kts 32°
2026-05-05 18:47 51.29940 9.34122 33319 ft 482 kts 23°
2026-05-05 18:47 51.33142 9.35774 33702 ft 485 kts 14°
2026-05-05 18:48 51.36445 9.36927 33956 ft 485 kts 13°
2026-05-05 18:48 51.39753 9.38070 34197 ft 485 kts 13°
2026-05-05 18:48 51.43056 9.39220 34441 ft 484 kts 13°
2026-05-05 18:48 51.46317 9.40362 34681 ft 484 kts 12°
2026-05-05 18:49 51.49615 9.41521 34791 ft 483 kts 12°
2026-05-05 18:49 51.52898 9.42678 34811 ft 481 kts 12°
2026-05-05 18:49 51.59430 9.44984 34814 ft 479 kts 12°
2026-05-05 18:50 51.65925 9.47277 34820 ft 479 kts 12°
2026-05-05 18:50 51.72459 9.49573 34823 ft 479 kts 12°
2026-05-05 18:51 51.78932 9.51865 34832 ft 479 kts 12°
2026-05-05 18:51 51.85261 9.55197 34827 ft 479 kts 27°
2026-05-05 18:52 51.91196 9.60111 34829 ft 479 kts 27°
2026-05-05 18:52 51.97146 9.65054 34275 ft 481 kts 28°
2026-05-05 18:53 52.00124 9.67533 33814 ft 481 kts 28°
2026-05-05 18:53 52.03104 9.70014 33293 ft 482 kts 27°
2026-05-05 18:53 52.06087 9.72499 32779 ft 482 kts 27°
2026-05-05 18:53 52.09073 9.74986 32272 ft 483 kts 27°
2026-05-05 18:54 52.12069 9.77486 31778 ft 483 kts 27°
2026-05-05 18:54 52.15066 9.79991 31292 ft 484 kts 27°
2026-05-05 18:54 52.18056 9.82495 30826 ft 482 kts 27°
2026-05-05 18:54 52.21003 9.84967 30351 ft 479 kts 27°
2026-05-05 18:55 52.23972 9.87408 29880 ft 475 kts 24°
2026-05-05 18:55 52.27055 9.89286 29349 ft 470 kts 15°
2026-05-05 18:55 52.30200 9.90676 28815 ft 466 kts 13°
2026-05-05 18:55 52.33318 9.92038 28298 ft 462 kts 13°
2026-05-05 18:56 52.36414 9.93393 27787 ft 458 kts 13°
2026-05-05 18:56 52.39491 9.94742 27283 ft 455 kts 13°
2026-05-05 18:56 52.42536 9.96083 26789 ft 451 kts 13°
2026-05-05 18:56 52.45550 9.97419 26310 ft 447 kts 13°
2026-05-05 18:57 52.48503 9.98733 25836 ft 444 kts 13°
2026-05-05 18:57 52.51476 10.00056 25368 ft 440 kts 13°
2026-05-05 18:57 52.54424 10.01363 24907 ft 437 kts 13°
2026-05-05 18:57 52.57358 10.02658 24451 ft 433 kts 13°
2026-05-05 18:58 52.60259 10.03943 24003 ft 430 kts 13°
2026-05-05 18:58 52.63137 10.05222 23565 ft 427 kts 13°
2026-05-05 18:58 52.65999 10.06500 23056 ft 424 kts 13°
2026-05-05 18:58 52.68841 10.07774 22515 ft 420 kts 13°
2026-05-05 18:59 52.71650 10.09039 21987 ft 417 kts 14°
2026-05-05 18:59 52.74441 10.10299 21463 ft 413 kts 14°
2026-05-05 18:59 52.77201 10.11201 20971 ft 408 kts
2026-05-05 18:59 52.80036 10.10876 20465 ft 400 kts 345°
2026-05-05 19:00 52.82589 10.09351 19975 ft 393 kts 332°
2026-05-05 19:00 52.85043 10.07400 19488 ft 389 kts 332°
2026-05-05 19:00 52.87495 10.05441 19001 ft 385 kts 332°
2026-05-05 19:00 52.89850 10.03553 18495 ft 376 kts 333°
2026-05-05 19:01 52.92182 10.01682 17954 ft 369 kts 333°
2026-05-05 19:01 52.94500 9.99822 17358 ft 362 kts 333°
2026-05-05 19:01 52.96714 9.98045 16789 ft 356 kts 333°
2026-05-05 19:01 52.98924 9.96273 16223 ft 350 kts 333°
2026-05-05 19:02 53.01095 9.94529 15662 ft 342 kts 333°
2026-05-05 19:02 53.03210 9.92826 15120 ft 333 kts 333°
2026-05-05 19:02 53.05275 9.91165 14585 ft 326 kts 333°
2026-05-05 19:02 53.07302 9.89530 14046 ft 322 kts 332°
2026-05-05 19:03 53.09310 9.87911 13508 ft 317 kts 332°
2026-05-05 19:03 53.11277 9.86323 12937 ft 311 kts 332°
2026-05-05 19:03 53.13181 9.84787 12422 ft 305 kts 332°
2026-05-05 19:03 53.15078 9.83255 11909 ft 301 kts 332°
2026-05-05 19:04 53.16954 9.81740 11410 ft 298 kts 332°
2026-05-05 19:04 53.17589 9.81227 11258 ft 297 kts 332°
2026-05-05 19:04 53.20670 9.78731 10723 ft 294 kts 332°
2026-05-05 19:04 53.22518 9.77274 10474 ft 293 kts 336°
2026-05-05 19:05 53.24527 9.76749 10228 ft 295 kts
2026-05-05 19:05 53.26455 9.77726 9986 ft 295 kts 28°
2026-05-05 19:05 53.28055 9.79819 9737 ft 291 kts 43°
2026-05-05 19:05 53.29496 9.82150 9479 ft 286 kts 44°
2026-05-05 19:06 53.30909 9.84480 9206 ft 281 kts 44°
2026-05-05 19:06 53.32280 9.86749 8943 ft 273 kts 44°
2026-05-05 19:06 53.33613 9.88961 8677 ft 266 kts 44°
2026-05-05 19:06 53.34914 9.91124 8425 ft 260 kts 44°
2026-05-05 19:07 53.36174 9.93222 8168 ft 257 kts 44°
2026-05-05 19:07 53.37433 9.95326 7913 ft 255 kts 44°
2026-05-05 19:07 53.38681 9.97412 7662 ft 253 kts 44°
2026-05-05 19:07 53.39928 9.99489 7407 ft 251 kts 44°
2026-05-05 19:08 53.41163 10.01546 7165 ft 249 kts 44°
2026-05-05 19:08 53.42386 10.03581 6953 ft 247 kts 44°
2026-05-05 19:08 53.43601 10.05607 6887 ft 245 kts 44°
2026-05-05 19:08 53.44817 10.07636 6898 ft 247 kts 44°
2026-05-05 19:09 53.46094 10.09553 6880 ft 247 kts 31°
2026-05-05 19:09 53.47711 10.10404 6656 ft 244 kts
2026-05-05 19:09 53.49324 10.09739 6411 ft 240 kts 329°
2026-05-05 19:09 53.50477 10.07762 6159 ft 239 kts 297°
2026-05-05 19:10 53.50828 10.05105 5902 ft 239 kts 266°